Location: Quedlinburg
(51.7921°N, 11.1414°E)
Time: 17:40:45
(UTC+01:00)

UNISAT 6 - Visible Passes

Search period start: 14 March 2026 00:00
Search period end: 24 March 2026 00:00
Orbit: 573 x 637 km, 97.8° (Epoch: 14 March)

Date Brightness Start Highest point End Pass type
(mag) Time Alt. Az. Time Alt. Az. Time Alt. Az.
14 Mar ? 02:22:24 16° NNE 02:22:24 16° NNE 02:23:36 10° N visible
14 Mar ? 03:59:14 13° NNW 03:59:14 13° NNW 03:59:44 10° NNW visible
15 Mar ? 02:35:00 19° NNE 02:35:00 19° NNE 02:36:28 10° N visible
15 Mar ? 04:11:50 12° NW 04:11:50 12° NW 04:12:16 10° NNW visible
16 Mar ? 02:47:35 22° N 02:47:35 22° N 02:49:17 10° N visible
16 Mar ? 04:24:25 11° NW 04:24:25 11° NW 04:24:42 10° NW visible
17 Mar ? 03:00:10 25° N 03:00:10 25° N 03:02:03 10° N visible
17 Mar ? 04:37:00 10° NW 04:37:00 10° NW 04:37:01 10° NW visible
18 Mar ? 01:35:53 12° NE 01:35:53 12° NE 01:36:59 10° NNE visible
18 Mar ? 03:12:44 28° N 03:12:44 28° N 03:14:45 10° N visible
19 Mar ? 01:48:27 15° NE 01:48:27 15° NE 01:50:19 10° NNE visible
19 Mar ? 03:25:17 29° NNW 03:25:17 29° NNW 03:27:26 10° NNW visible
20 Mar ? 02:01:01 18° NE 02:01:01 18° NE 02:03:23 10° NNE visible
20 Mar ? 03:37:50 30° NNW 03:37:50 30° NNW 03:40:03 10° NNW visible
21 Mar ? 02:13:33 22° NE 02:13:33 22° NE 02:16:18 10° N visible
21 Mar ? 03:50:23 28° NW 03:50:23 28° NW 03:52:38 10° NNW visible
22 Mar ? 02:26:04 28° NE 02:26:04 28° NE 02:29:10 10° N visible
22 Mar ? 04:02:55 25° NW 04:02:55 25° NW 04:05:09 10° NNW visible
23 Mar ? 02:38:36 35° NE 02:38:36 35° NE 02:41:57 10° N visible
23 Mar ? 04:15:27 22° WNW 04:15:27 22° WNW 04:17:36 10° NW visible
